Flag for Ukraine Weather past 2 weeks in Kyiv, Ukraine

Now
55 °F

Partly sunny.


Feels Like: 55 °F
Forecast: 35 / 44 °F
Wind: 3 mph from Northeast

Location: Kyiv

Current Time: Oct 22, 2014 at 1:37:11 PM

Latest Report: Oct 22, 2014 at 1:00 PM


Visibility: 6 mi

Pressure: 29.77 "Hg

Humidity: 77%

Dew point: 48 °F

Location of KyivLocation

Historic Weather in Kyiv — Graph

°F

Kyiv temperature yesterday

Maximum temperature yesterday: 59 °F (at 1:30 PM)
Minimum temperature yesterday: 50 °F (at 5:30 AM)
Average temperature yesterday: 53 °F

Past Weeks' High & Low Weather Summary

 TemperatureHumidityPressure
High72 °F (Oct 13, 2:30 PM)100% (Oct 12, 3:30 AM)30.57 "Hg (Oct 12, 3:30 AM)
Low25 °F (Oct 19, 5:30 AM)23% (Oct 14, 2:30 PM)29.00 "Hg (Oct 17, 8:03 AM)
Average51 °F69%30.02 "Hg
* Reported Oct 7 12:00 Noon — Oct 22 12:30 PM, Kyiv, Weather by CustomWeather, © 2014

Note: Actual official high and low records may vary slightly from our data, if they occured in-between our weather recording intervals... More about our weather records

Advertising

Kyiv weather history for previous 24 hours

 ConditionsComfort  
Time TempWeatherWind HumidityBarometerVisibility
12:30 PM
Oct 22
54 °FPartly sunny.6 mph82%29.77 "Hg6 mi
12:00 PM54 °FClear.3 mph77%29.77 "Hg6 mi
11:30 AM54 °FClear.1 mph82%29.77 "Hg5 mi
11:00 AM52 °FClear.3 mph88%29.77 "Hg5 mi
10:30 AM52 °FClear.1 mph88%29.77 "Hg4 mi
10:00 AM48 °FBroken clouds.3 mph94%29.77 "Hg4 mi
9:30 AM46 °FFog.3 mph100%29.77 "Hg3 mi
9:00 AM45 °FFog.1 mph100%29.74 "Hg2 mi
8:30 AM43 °FFog.3 mph100%29.74 "Hg1 mi
8:00 AM41 °FPassing clouds.6 mph100%29.74 "Hg0 mi
7:51 AM39 °FFog.3 mph100%29.74 "Hg0 mi
7:30 AM41 °FFog.3 mph100%29.71 "Hg0 mi
7:00 AM39 °FFog.3 mph100%29.71 "Hg0 mi
6:55 AM39 °FFog.3 mph100%29.71 "Hg0 mi
6:30 AM41 °FLight fog.3 mph100%29.71 "Hg1 mi
6:00 AM43 °FFog.6 mph100%29.71 "Hg2 mi
5:30 AM43 °FFog.3 mph100%29.71 "Hg3 mi
5:00 AM45 °FClear.3 mph93%29.71 "Hg4 mi
4:30 AM45 °FClear.3 mph93%29.71 "Hg4 mi
4:00 AM45 °FClear.1 mph93%29.71 "Hg4 mi
3:30 AM45 °FClear.3 mph93%29.71 "Hg5 mi
3:00 AM45 °FClear.3 mph93%29.71 "Hg5 mi
2:30 AM45 °FFog.3 mph100%29.71 "Hg2 mi
2:00 AM45 °FFog.3 mph93%29.71 "Hg3 mi
1:30 AM46 °FFog.3 mph93%29.71 "Hg3 mi
1:00 AM48 °FClear.3 mph87%29.71 "Hg6 mi
12:30 AM50 °FPassing clouds.1 mph88%29.71 "HgN/A
12:00 AM50 °FPassing clouds.3 mph88%29.71 "HgN/A
11:30 PM
Oct 21
50 °FClear.6 mph88%29.71 "Hg10 mi
11:00 PM50 °FClear.3 mph88%29.71 "Hg10 mi
10:30 PM52 °FClear.6 mph82%29.68 "Hg10 mi
10:00 PM52 °FClear.8 mph82%29.68 "Hg10 mi
9:30 PM52 °FClear.6 mph82%29.68 "Hg10 mi
9:00 PM52 °FClear.8 mph82%29.68 "Hg10 mi
8:30 PM52 °FClear.10 mph82%29.68 "Hg10 mi
8:00 PM52 °FClear.10 mph82%29.68 "Hg10 mi
7:30 PM52 °FClear.10 mph82%29.68 "Hg10 mi
7:00 PM52 °FClear.8 mph82%29.68 "Hg10 mi
6:30 PM52 °FSunny.8 mph82%29.68 "Hg10 mi
6:00 PM54 °FSunny.8 mph77%29.68 "Hg10 mi
5:30 PM54 °FSunny.10 mph77%29.68 "Hg10 mi
5:00 PM55 °FLight rain. Overcast.10 mph72%29.68 "HgN/A
4:30 PM55 °FLight rain. Overcast.15 mph72%29.68 "HgN/A
4:00 PM55 °FLight rain. Overcast.15 mph72%29.68 "HgN/A
3:30 PM57 °FBroken clouds.13 mph67%29.68 "HgN/A
3:00 PM57 °FBroken clouds.13 mph67%29.68 "HgN/A
2:30 PM57 °FBroken clouds.15 mph67%29.68 "HgN/A
2:00 PM57 °FBroken clouds.15 mph63%29.68 "HgN/A
1:30 PM59 °FBroken clouds.15 mph63%29.68 "HgN/A
1:00 PM57 °FBroken clouds.15 mph67%29.68 "HgN/A
Weather by CustomWeather, © 2014

See weather overviewHow to use our weather pages